www.pogodaiklimat.ru

Погода и климат >> Архив погоды >> Россия >> Крым >> Евпатория


ПОГОДА в Евпатории

АРХИВ ПОГОДЫ в Евпатории

Время (UTC), дата Ветер
(напр.,м/с)
 
Видим.   Явления Облачность Т
(С)
Тd
(С)
f
(%)
Тe
(С)
Тes
(С)
Комфортность P
(гПа)
Po
(гПа)
Тmin
(С)
Tmax
(С)
R
(мм)
R24
(мм)
S
(см)
12 12.05 СЗ 2 20 км 5/4 600 м
[Cu med, cong Ci fib]
+21.1 +11.7 55 +23 +30 комфорт 1019.9 1018.7
15 12.05 З 3 20 км 9/6 600 м
[Cb cap Ci sp]
+20.7 +12.9 61 +23 +24 комфорт 1019.9 1018.7
18 12.05 З 2
{11}
10 км в посл. час гроза {ливн. осадки} 10/10 300 м
[Cb cap]
+15.5 +14.3 93 +15 +15 тепло 1020.3 1019.1 +21.5 7
21 12.05 СЗ 1 10 км 10/10 600 м
[Sc]
+15.6 +14.0 90 +16 +16 тепло 1021.2 1020.0
00 13.05 С 1 10 км 6/6 600 м
[Sc]
+14.2 +13.1 93 +14 +14 тепло 1019.9 1018.7
03 13.05 СЗ 1 10 км 9/9 600 м
[Sc]
+13.6 +13.0 96 +14 +14 тепло 1019.4 1018.2 +13.4 7
06 13.05 Ю 2 20 км 8/8 600 м
[St]
+15.7 +14.3 91 +16 +17 тепло 1020.2 1019.0 +13.4
09 13.05 ЮЗ 2 20 км 8/3 300 м
[St Ac trans]
+17.2 +13.9 81 +18 +23 тепло 1021.2 1020.0
12 13.05 ЮЗ 4 20 км 3/1 600 м
[Cu med, cong Ci fib]
+18.0 +13.7 76 +18 +25 тепло 1021.2 1020.0
15 13.05 ЮЗ 4 20 км 1/1 600 м
[Cu med, cong]
+17.9 +13.8 77 +18 +20 тепло 1021.2 1020.0
18 13.05 ЮЗ 2 10 км 4/4 300 м
[Sc diur, vesp]
+15.1 +13.8 92 +15 +15 тепло 1020.8 1019.6 +18.6
21 13.05 ЮЗ 2 10 км ясно +14.5 +13.2 92 +14 +14 тепло 1021.2 1020.0
00 14.05 З 2 10 км ясно +13.8 +13.2 96 +13 +13 тепло 1021.2 1020.0
03 14.05 С 1 20 км 10/0
[Ci fib]
+12.5 +11.8 95 +12 +13 по сезону 1020.2 1019.0 +12.2
06 14.05 ЮВ 2 20 км 10/3 300 м
[St Ci fib]
+16.1 +12.8 81 +16 +21 тепло 1020.1 1018.9 +12.2
09 14.05 ЮВ 1 20 км 6/1 600 м
[Cu med, cong Ci sp]
+19.7 +14.3 71 +23 +31 комфорт 1021.2 1020.0
12 14.05 ЮЗ 4 20 км 10/1 600 м
[Cu med, cong Ac As Ci fib]
+19.3 +12.1 63 +20 +20 тепло 1019.9 1018.7
15 14.05 З 2 20 км 10/0
[Ac As]
+18.7 +7.5 48 +20 +20 тепло 1019.9 1018.7
18 14.05 З 1 20 км 10/0
[Cs]
+16.1 +10.1 68 +17 +17 тепло 1019.0 1017.8 +21.7
21 14.05 СВ 1 10 км 3/0
[Ci fib]
+15.9 +11.3 74 +17 +17 тепло 1019.9 1018.7
00 15.05 С 2 10 км 1/0
[Ci fib]
+13.2 +10.7 85 +12 +12 по сезону 1018.5 1017.3
03 15.05 В 6 10 км 10/0
[Ci fib]
+14.3 +12.5 89 +12 +12 по сезону 1016.5 1015.3 +12.7
06 15.05 В 6 50 км {туман} 10/1 600 м
[Cu hum Ci fib]
+16.3 +13.4 83 +15 +17 по сезону 1016.8 1015.6 +12.7
09 15.05 В 6 50 км 10/0
[Ci fib]
+23.5 +12.8 51 +26 +26 жарко 1015.9 1014.7
12 15.05 В 6 50 км 10/0
[Ci sp]
+26.6 +12.6 42 +28 +28 жарко 1015.9 1014.7
15 15.05 В 9-11
{11}
20 км 10/0
[Ci fib]
+25.5 +12.8 45 +27 +28 жарко 1013.5 1012.3
18 15.05 В 9-13
{14}
50 км 10/0
[Cc]
+22.1 +12.2 53 +24 +24 комфорт 1013.7 1012.5 +26.8
21 15.05 В 9-12
{14}
10 км 10/0
[Cs]
+19.4 +12.5 64 +20 +20 тепло 1013.7 1012.5
00 16.05 ЮВ 4
{12}
10 км 6/0
[Cs]
+16.0 +14.2 89 +15 +15 тепло 1013.0 1011.8
03 16.05 СВ 4 50 км 8/0
[Ci fib]
+15.9 +12.8 82 +15 +15 тепло 1011.9 1010.7 +14.5
06 16.05 В 11-14
{16}
20 км 3/0
[Ci fib]
+22.5 +12.9 55 +25 +25 комфорт 1010.8 1009.6 +14.5
09 16.05 В 10-15
{15}
20 км 4/0
[Ac cast Ci fib]
+26.0 +13.1 45 +28 +28 жарко 1010.4 1009.3
12 16.05 ЮЗ 3
{15}
20 км 8/3 600 м
[Cu med, cong Ac cast]
+26.4 +14.2 47 +29 +33 жарко 1009.9 1008.8
15 16.05 С 3
{10}
20 км 10/3 600 м
[Cu med, cong Ci fib]
+21.9 +13.2 58 +25 +26 комфорт 1011.4 1010.2
18 16.05 С 3 20 км 10/6 600 м
[Sc Ac lent]
+20.9 +13.4 62 +24 +24 комфорт 1010.6 1009.4 +27.6
21 16.05 С 2 10 км 10/0
[Ci fib]
+20.1 +15.7 76 +23 +23 комфорт 1011.9 1010.7
00 17.05 Ю 1 10 км 10/0
[Ci fib]
+17.1 +16.1 94 +18 +18 тепло 1011.9 1010.7
03 17.05 СВ 2 10 км 4/0
[Ci fib]
+15.7 +14.7 94 +16 +16 тепло 1010.5 1009.3 +15.2
06 17.05 В 3 20 км 6/0
[Ci fib]
+19.5 +15.5 78 +22 +28 комфорт 1011.0 1009.8 +15.2
09 17.05 Ю 2 20 км 10/0
[Ci fib]
+27.0 +16.9 54 +31 +31 душно 1011.8 1010.7
12 17.05 Ю 1 50 км 3/0
[Ci fib]
+30.4 +16.0 42 +33 +47 душно 1010.4 1009.3
15 17.05 В 10-13
{13}
20 км 8/0
[Ac trans Ci fib]
+26.4 +15.0 50 +29 +29 жарко 1008.3 1007.2
18 17.05 СВ 6
{13}
20 км 10/0
[Ci fib]
+22.9 +5.2 32 +23 +23 комфорт 1008.1 1006.9 +30.7
21 17.05 З 4 10 км 10/0
[Cc]
+19.9 +16.3 80 +22 +22 комфорт 1010.5 1009.3
00 18.05 ЮВ 2 10 км 10/0
[Cs]
+17.3 +15.8 91 +18 +18 тепло 1007.9 1006.7
03 18.05 ЮВ 6 20 км 10/0
[Ac trans Ci sp]
+17.4 +15.6 89 +17 +17 тепло 1006.9 1005.7 +16.4
06 18.05 СВ 3 20 км 10/3 600 м
[Sc Ac trans Cc]
+19.9 +15.6 76 +22 +25 комфорт 1005.9 1004.7 +16.4
09 18.05 В 5 20 км 10/0
[Ac trans Ci sp]
+24.5 +17.2 64 +28 +28 душно 1007.8 1006.7
12 18.05 З 5 20 км 10/3 600 м
[Cu hum Ci sp]
+26.7 +18.0 59 +31 +31 душно 1006.4 1005.3
15 18.05 В 7 20 км 9/1 600 м
[Cu hum Ac cast Ci fib]
+27.2 +16.8 53 +31 +31 душно 1005.1 1004.0
18 18.05 ЮЗ 7
{10}
20 км 9/3 600 м
[Sc Ci fib]
+23.2 +16.7 67 +28 +28 душно 1005.8 1004.6 +27.5
21 18.05 З 3 10 км {ливн. осадки} 6/5 600 м
[Cb cap Ac cast]
+18.6 +16.6 88 +20 +20 тепло 1007.9 1006.7
00 19.05 Ю 3 10 км в посл. час ливневой дождь 9/8 600 м
[Cb cap Ac trans]
+17.4 +16.4 94 +17 +17 тепло 1005.5 1004.3
03 19.05 ЮВ 4 10 км в посл. час ливневой дождь 10/5 600 м
[Cb cap Ac As Ci fib]
+17.7 +16.5 93 +17 +18 тепло 1006.9 1005.7 +17.3 0.4
06 19.05 ЮВ 5 20 км гроза без осадков 10 баллов +17.7 +15.5 87 +17 +17 тепло 1010.5 1009.3 +17.3 0.4

 

Местоположение метеостанции Евпатория (Крым, Россия): широта 45.18 долгота 33.37 высота над уровнем моря 10 м.

В архиве по умолчанию представлена погода в Евпатории за последнюю неделю. Архивные данные за месяц целиком и за предыдущие месяцы, начиная с января 2011 года, Вы можете получить, выбрав интересующий диапазон дат из раскрывающегося списка и нажав кнопку "Ввод!".


*Определитесь, кто Вы:
робот инопланетянин человек

Внимание! Время в таблицах - всемирное. Для получения местного времени необходимо прибавить поправку, которая равна 3 ч.

Смотрите также архив погоды в соседних городах и на ближайших метеорологических станциях:

Погода в Симферополе (Крым, Россия) (50 км)
Погода в Почтовом (Крым, Россия) (60 км)
Погода в Севастополе (город Севастополь, Россия) (64 км)
Погода в Симферополе город (Крым, Россия) (64 км)
Погода в Черноморском (Крым, Россия) (65 км)
Погода в Херсонесском Маяке (город Севастополь, Россия) (67 км)
Погода в Раздольном (Крым, Россия) (67 км)
Погода в Клепинино (Крым, Россия) (74 км)
Погода в Ишуни (Крым, Россия) (89 км)
Погода на Ангарском Перевале (Крым, Россия) (91 км)

Пояснения к столбцам:

Ветер - указаны скорость ветра в м/с - средняя за 10 мин, порывы в срок и между сроками (в фигурных скобках) и направление, откуда дует ветер: С - северный, СВ - северо-восточный, В - восточный, ЮВ - юго-восточный, Ю - южный, ЮЗ - юго-западный, З - западный, СЗ - северо-западный.
Видимость - горизонтальная дальность видимости в метрах или километрах. При видимости от 1 до 10 км при отсутствии осадков обычно наблюдается дымка, при ухудшении видимости до 1 км и менее - туман. В сухую погоду видимость может ухудшаться дымом, пылью или мглою.
Явления - указаны атмосферные явления, наблюдавшиеся в срок или в последний час перед сроком; фигурными скобками обозначены явления, наблюдавшиеся между сроками (за 1-3 часа до срока); квадратными скобками обозначены град или гололедные отложения с указанием их диаметра в мм.
Облачность - указаны через наклонную черту общая и нижняя облачность в баллах и высота нижней границы облаков в метрах; квадратными скобками обозначены формы облаков: Ci - перистые, Cs - перисто-слоистые, Cc - перисто-кучевые, Ac - высококучевые, As - высокослоистые, Sc - слоисто-кучевые, Ns - слоисто-дождевые, Cu - кучевые, Cb - кучево-дождевые. Подробнее классификацию облаков см. в Атласе облаков (PDF).
T - Температура воздуха - температура, измеренная на высоте 2 м над землей.
Td - Температура точки росы - температура, при понижении до которой содержащийся в воздухе водяной пар достигнет насыщения.
f - Относительная влажность воздуха - влажноcть воздуха, измеренная на высоте 2 м над землей.
Te - Эффективная температура - температура, которую ощущает одетый по сезону человек в тени. Характеристика душности погоды. При расчете учитывается влияние влажности воздуха и скорости ветра на теплоощущения человека.
Tes - Эффективная температура на солнце - температура, которую ощущает человек, с поправкой на солнечный нагрев. Характеристика знойности погоды. Зависит от высоты солнца над горизонтом, облачности и скорости ветра. Ночью, в пасмурную погоду, а также при ветре 12 м/с и более поправка равна нулю.
P - Атмосферное давление - приведенное к уровню моря атмосферное давление.
Po - Атмосферное давление - измеренное на уровне метеостанции атмосферное давление.
Tmin - Минимальная температура - минимум температуры воздуха на высоте 2 м над землей.
Tmax - Максимальная температура - максимум температуры воздуха на высоте 2 м над землей.
R - Количество осадков - Количество выпавших осадков за период времени, мм. При наведении курсора мыши на число - период времени, за который выпало указанное количество осадков.
R24 - Количество осадков - Количество выпавших осадков за 24 часа, мм.
S - Снежный покров - Высота снежного покрова, см. При наведении курсора мыши на число - состояние снежного покрова и степень покрытия местности в баллах.